When you browse on this site, cookies collect data to enhance your experience and personalize the content and advertising you see.
Visit our Privacy Policy to learn more. By continuing to use the site, you agree to this use of cookies and data.
  • In Österreich
  • Länderverzeichnis
  • Für 7 Tage
  • Wassertemperatur
  • Satellitenkarten
  • Wetterkarte
  • News
  • Widgets
  • user-avatar
    Anmelden

    Stündliche Wetter Uige

    Heute, 19 Januar, Samstag

    Zeit Temperatur Niederschläge Wind Luftdruck Luftfeuchtigkeit
    00:00 +22°C° 0.6 mm 1 m/S 692 mmHg 99%
    01:00 +22°C° 0 mm 1 m/S 692 mmHg 99%
    02:00 +22°C° 0.2 mm 1 m/S 692 mmHg 99%
    03:00 +22°C° 0.2 mm 1 m/S 692 mmHg 99%
    04:00 +21°C° 0.2 mm 1 m/S 691 mmHg 99%
    05:00 +22°C° 0 mm 1 m/S 692 mmHg 99%
    06:00 +20°C° 0 mm 0 m/S 692 mmHg 98%
    07:00 +20°C° 0 mm 0 m/S 692 mmHg 98%
    08:00 +23°C° 0 mm 1 m/S 693 mmHg 91%
    09:00 +24°C° 0 mm 1 m/S 693 mmHg 85%
    10:00 +26°C° 0 mm 1 m/S 694 mmHg 78%
    11:00 +26°C° 0.5 mm 1 m/S 693 mmHg 80%
    12:00 +26°C° 0.5 mm 2 m/S 693 mmHg 82%
    13:00 +26°C° 0.5 mm 2 m/S 692 mmHg 84%
    14:00 +26°C° 0.8 mm 2 m/S 692 mmHg 87%
    15:00 +25°C° 0.8 mm 1 m/S 691 mmHg 90%
    16:00 +25°C° 0.8 mm 1 m/S 691 mmHg 93%
    17:00 +24°C° 0.3 mm 1 m/S 691 mmHg 95%
    18:00 +23°C° 0.3 mm 1 m/S 691 mmHg 96%
    19:00 +23°C° 0.3 mm 1 m/S 691 mmHg 98%
    20:00 +20°C° 0 mm 0 m/S 692 mmHg 98%
    21:00 +20°C° 0 mm 0 m/S 692 mmHg 98%
    22:00 +19°C° 0 mm 0 m/S 693 mmHg 98%
    23:00 +19°C° 0 mm 0 m/S 692 mmHg 98%

    Morgen, 20 Januar, Sonntag

    Zeit Temperatur Niederschläge Wind Luftdruck Luftfeuchtigkeit
    00:00 +19°C° 0 mm 0 m/S 692 mmHg 98%
    01:00 +19°C° 0 mm 0 m/S 692 mmHg 98%
    02:00 +18°C° 0 mm 0 m/S 692 mmHg 98%
    03:00 +18°C° 0 mm 0 m/S 691 mmHg 98%
    04:00 +18°C° 0 mm 0 m/S 691 mmHg 98%
    05:00 +19°C° 0 mm 0 m/S 692 mmHg 97%
    06:00 +19°C° 0 mm 0 m/S 692 mmHg 97%
    07:00 +19°C° 0 mm 0 m/S 692 mmHg 96%
    08:00 +23°C° 0 mm 1 m/S 693 mmHg 86%
    09:00 +26°C° 0 mm 1 m/S 693 mmHg 75%
    10:00 +28°C° 0 mm 2 m/S 694 mmHg 65%
    11:00 +28°C° 0.1 mm 2 m/S 693 mmHg 63%
    12:00 +29°C° 0.1 mm 2 m/S 693 mmHg 61%
    13:00 +30°C° 0.1 mm 3 m/S 692 mmHg 59%
    14:00 +29°C° 0.7 mm 2 m/S 692 mmHg 67%
    15:00 +28°C° 0.7 mm 2 m/S 691 mmHg 75%
    16:00 +27°C° 0.7 mm 2 m/S 690 mmHg 83%
    17:00 +25°C° 0.2 mm 2 m/S 691 mmHg 88%
    18:00 +24°C° 0.2 mm 1 m/S 691 mmHg 93%
    19:00 +23°C° 0.2 mm 1 m/S 691 mmHg 98%
    20:00 +20°C° 0 mm 0 m/S 692 mmHg 98%
    21:00 +20°C° 0 mm 0 m/S 692 mmHg 98%
    22:00 +20°C° 0 mm 0 m/S 693 mmHg 98%
    23:00 +19°C° 0 mm 0 m/S 692 mmHg 98%

    übermorgen, 21 Januar, Montag

    Zeit Temperatur Niederschläge Wind Luftdruck Luftfeuchtigkeit
    00:00 +19°C° 0 mm 0 m/S 692 mmHg 98%
    01:00 +19°C° 0 mm 0 m/S 692 mmHg 98%
    02:00 +19°C° 0 mm 0 m/S 691 mmHg 98%
    03:00 +19°C° 0 mm 0 m/S 691 mmHg 98%
    04:00 +18°C° 0 mm 0 m/S 691 mmHg 98%
    05:00 +19°C° 0 mm 0 m/S 691 mmHg 98%
    06:00 +19°C° 0 mm 0 m/S 692 mmHg 97%
    07:00 +20°C° 0 mm 0 m/S 692 mmHg 97%
    08:00 +24°C° 0 mm 1 m/S 693 mmHg 86%
    09:00 +26°C° 0 mm 1 m/S 694 mmHg 75%
    10:00 +28°C° 0 mm 1 m/S 694 mmHg 65%
    11:00 +29°C° 0.1 mm 2 m/S 693 mmHg 62%
    12:00 +30°C° 0.1 mm 2 m/S 693 mmHg 60%
    13:00 +31°C° 0.1 mm 2 m/S 692 mmHg 57%
    14:00 +29°C° 0.8 mm 2 m/S 691 mmHg 66%
    15:00 +28°C° 0.8 mm 2 m/S 690 mmHg 74%
    16:00 +27°C° 0.8 mm 2 m/S 690 mmHg 83%
    17:00 +26°C° 0.5 mm 2 m/S 690 mmHg 87%
    18:00 +24°C° 0.5 mm 1 m/S 690 mmHg 92%
    19:00 +22°C° 0.5 mm 1 m/S 690 mmHg 96%
    20:00 +22°C° 0 mm 1 m/S 691 mmHg 96%
    21:00 +22°C° 0 mm 1 m/S 692 mmHg 96%
    22:00 +19°C° 0 mm 0 m/S 692 mmHg 96%
    23:00 +21°C° 0 mm 1 m/S 692 mmHg 97%

    22 Januar, Dienstag

    Zeit Temperatur Niederschläge Wind Luftdruck Luftfeuchtigkeit
    00:00 +21°C° 0 mm 1 m/S 692 mmHg 98%
    01:00 +21°C° 0 mm 1 m/S 691 mmHg 99%
    02:00 +21°C° 0 mm 1 m/S 691 mmHg 99%
    03:00 +21°C° 0 mm 1 m/S 691 mmHg 98%
    04:00 +21°C° 0 mm 1 m/S 691 mmHg 98%
    05:00 +21°C° 0 mm 1 m/S 691 mmHg 98%
    06:00 +21°C° 0 mm 1 m/S 691 mmHg 98%
    07:00 +21°C° 0 mm 1 m/S 692 mmHg 97%
    08:00 +24°C° 0 mm 1 m/S 692 mmHg 84%
    09:00 +26°C° 0 mm 1 m/S 693 mmHg 71%
    10:00 +29°C° 0 mm 2 m/S 694 mmHg 58%
    11:00 +30°C° 0 mm 2 m/S 693 mmHg 55%
    12:00 +31°C° 0 mm 2 m/S 692 mmHg 52%
    13:00 +31°C° 0 mm 3 m/S 692 mmHg 49%
    14:00 +30°C° 0.6 mm 2 m/S 691 mmHg 62%
    15:00 +28°C° 0.6 mm 2 m/S 690 mmHg 74%
    16:00 +27°C° 0.6 mm 2 m/S 690 mmHg 87%
    17:00 +25°C° 0.5 mm 1 m/S 690 mmHg 90%
    18:00 +24°C° 0.5 mm 1 m/S 690 mmHg 93%
    19:00 +23°C° 0.5 mm 1 m/S 691 mmHg 95%
    20:00 +22°C° 0 mm 1 m/S 691 mmHg 96%
    21:00 +22°C° 0 mm 1 m/S 691 mmHg 97%
    22:00 +21°C° 0 mm 1 m/S 692 mmHg 98%
    23:00 +21°C° 0 mm 1 m/S 691 mmHg 98%

    23 Januar, Mittwoch

    Zeit Temperatur Niederschläge Wind Luftdruck Luftfeuchtigkeit
    00:00 +20°C° 0 mm 1 m/S 691 mmHg 98%
    01:00 +20°C° 0 mm 1 m/S 691 mmHg 99%
    02:00 +20°C° 0 mm 1 m/S 690 mmHg 99%
    03:00 +20°C° 0 mm 1 m/S 690 mmHg 99%
    04:00 +19°C° 0 mm 2 m/S 690 mmHg 99%
    05:00 +20°C° 0 mm 1 m/S 691 mmHg 98%
    06:00 +20°C° 0 mm 1 m/S 691 mmHg 97%
    07:00 +21°C° 0 mm 1 m/S 692 mmHg 97%
    08:00 +22°C° 0 mm 1 m/S 692 mmHg 89%
    09:00 +23°C° 0 mm 1 m/S 692 mmHg 81%
    10:00 +25°C° 0 mm 1 m/S 693 mmHg 73%
    11:00 +26°C° 0 mm 2 m/S 692 mmHg 68%
    12:00 +27°C° 0 mm 2 m/S 692 mmHg 63%
    13:00 +28°C° 0 mm 2 m/S 691 mmHg 58%
    14:00 +28°C° 0 mm 2 m/S 691 mmHg 59%
    15:00 +27°C° 0 mm 2 m/S 690 mmHg 61%
    16:00 +27°C° 0 mm 2 m/S 690 mmHg 63%
    17:00 +26°C° 0 mm 2 m/S 690 mmHg 69%
    18:00 +24°C° 0 mm 1 m/S 690 mmHg 75%
    19:00 +23°C° 0 mm 1 m/S 690 mmHg 82%
    20:00 +22°C° 0 mm 1 m/S 690 mmHg 85%
    21:00 +21°C° 0 mm 1 m/S 691 mmHg 88%
    22:00 +18°C° 0 mm 0 m/S 691 mmHg 91%
    23:00 +18°C° 0 mm 0 m/S 691 mmHg 93%

    24 Januar, Donnerstag

    Zeit Temperatur Niederschläge Wind Luftdruck Luftfeuchtigkeit
    00:00 +18°C° 0 mm 0 m/S 690 mmHg 95%
    01:00 +17°C° 0 mm 0 m/S 690 mmHg 97%
    02:00 +17°C° 0 mm 0 m/S 690 mmHg 98%
    03:00 +18°C° 0 mm 0 m/S 690 mmHg 98%
    04:00 +18°C° 0 mm 0 m/S 689 mmHg 98%
    05:00 +18°C° 0 mm 0 m/S 690 mmHg 97%
    06:00 +21°C° 0 mm 1 m/S 690 mmHg 96%
    07:00 +21°C° 0 mm 1 m/S 691 mmHg 95%
    08:00 +24°C° 0 mm 1 m/S 691 mmHg 83%
    09:00 +26°C° 0 mm 1 m/S 691 mmHg 72%
    10:00 +29°C° 0 mm 1 m/S 692 mmHg 60%
    11:00 +30°C° 0 mm 2 m/S 691 mmHg 55%
    12:00 +31°C° 0 mm 2 m/S 691 mmHg 51%
    13:00 +32°C° 0 mm 2 m/S 690 mmHg 46%
    14:00 +32°C° 0.2 mm 2 m/S 690 mmHg 51%
    15:00 +31°C° 0.2 mm 2 m/S 689 mmHg 57%
    16:00 +30°C° 0.2 mm 2 m/S 688 mmHg 62%
    17:00 +28°C° 0 mm 2 m/S 689 mmHg 72%
    18:00 +26°C° 0 mm 1 m/S 689 mmHg 82%
    19:00 +24°C° 0 mm 1 m/S 689 mmHg 92%
    20:00 +23°C° 0 mm 1 m/S 689 mmHg 94%
    21:00 +22°C° 0 mm 1 m/S 690 mmHg 95%
    22:00 +22°C° 0 mm 1 m/S 690 mmHg 97%
    23:00 +21°C° 0 mm 1 m/S 690 mmHg 98%
    Mehr zeigen